Regional Weather Roundup
Issued by NWS

Home | Current Version | Previous Version | Text Only | Print | Product List | Glossary On
Versions: 1 2 3 4 5 6 7 8 9 10 11 12 13 14 15 16 17 18 19 20 21 22 23 24 25 26 27 28 29 30 31 32 33 34 35 36 37 38 39 40 41 42 43 44 45 46 47 48 49 50
000
ASUS42 KKEY 280810
RWRKEY

FLORIDA REGIONAL WEATHER ROUNDUP FOR THE FLORIDA KEYS
NATIONAL WEATHER SERVICE KEY WEST FLORIDA
300 AM EST TUE FEB 28 2017

...SOUTH FLORIDA AND THE KEYS...

CITY           SKY/WX    TMP DP  RH WIND       PRES   REMARKS
FORT MYERS     CLEAR     69  68  96 E5        30.21F
SW REGIONAL AP CLEAR     68  66  93 E6        30.22S
NAPLES         CLEAR     71  70  96 E6        30.21S
MIAMI          PTCLDY    76  70  82 E13       30.21F
WEST KENDALL   PTCLDY    75  70  84 E8        30.20F
HOMESTEAD      PTCLDY    75  74  97 E9        30.20F
MARATHON       CLEAR     78  72  81 E8        30.18F
BOCA CHICA NAS CLEAR     74  71  91 E12       30.17F
KEY WEST INTL  PTCLDY    77  71  82 E14       30.18F

...INTERNATIONAL WEATHER...

CITY           SKY/WX    TMP DP  RH WIND       PRES   REMARKS
NASSAU BAHAMAS PTCLDY    77  68  73 NE8       30.25F
CANCUN MEXICO  PTCLDY    77  72  83 E9        30.07F
COZUMEL MEXICO CLEAR     73  70  88 SE6       30.04F

ADJACENT COASTAL WATERS...

STATION/POSITION TIME  SKY/WX   TEMP    WIND        PRES    WAVE
                                AIR SEA DIR/SP/G            HT/PER
                 (UTC)          (F)     (DEG/KT/KT) (MB)    (FT/S)
PULASKI SHOAL LI 0800            74     100/ 11/ 12 1021.3F
SAND KEY         0750            77     120/ 14/ 17 1022.0F
LONG KEY         0800            77 77  120/ 14/ 17 1022.3F
MOLASSES REEF    0800            77     120/ 17       N/A
FOWEY ROCKS      0800            76 76  100/ 20/ 21 1023.2F
Buoy 42097       0800                                 N/A     2/ 4

$$



USA.gov is the U.S. government's official web portal to all federal, state and local government web resources and services.